Location: ?????????
(41.2393°N, 22.9479°E)
Time: 03:11:35
(UTC+00:00)

RESURS DK-1 - Visible Passes

Search period start: 19 February 2026 00:00
Search period end: 01 March 2026 00:00
Orbit: 526 x 531 km, 69.9° (Epoch: 18 February)

Date Brightness Start Highest point End Pass type
(mag) Time Alt. Az. Time Alt. Az. Time Alt. Az.
19 Feb 4.0 16:52:25 10° NNE 16:54:52 16° NE 16:56:12 14° ENE visible
19 Feb 3.6 18:28:41 10° NW 18:31:32 37° WNW 18:31:32 37° WNW visible
20 Feb 3.9 16:40:46 10° NNE 16:43:20 16° NE 16:45:53 10° E visible
20 Feb 3.3 18:17:09 10° NW 18:20:55 43° WSW 18:21:22 41° SW visible
21 Feb 3.5 18:05:37 10° NW 18:09:20 40° WSW 18:11:31 21° SSW visible
22 Feb 3.7 17:54:05 10° NW 17:57:45 37° WSW 18:01:24 10° S visible
23 Feb 3.9 17:42:33 10° NW 17:46:10 35° WSW 17:49:45 10° S visible
24 Feb 4.1 17:31:01 10° NW 17:34:34 33° WSW 17:38:06 10° S visible
25 Feb 4.3 17:19:28 10° NW 17:22:58 31° WSW 17:26:27 10° S visible
26 Feb 4.5 17:07:56 10° NW 17:11:22 29° WSW 17:14:47 10° SSW visible
27 Feb 4.7 16:56:24 10° NW 16:59:46 27° WSW 17:03:06 10° SSW visible
28 Feb 4.9 16:44:52 10° NW 16:48:09 25° WSW 16:51:24 10° SSW visible
